Location: Borbetomagus
(49.6328°N, 8.3592°E)
Time: 00:01:58
(UTC+00:00)

Cosmos 405 Rocket - Pass Details

Date: 19 May 2025
Orbit: 413 x 447 km, 81.2° (Epoch: 23 June)

Event Time Altitude Azimuth Distance (km) Brightness Sun altitude
Rises 21:38:28 0° 353° (N) 2,463 7.5 -16.6°
Reaches altitude 10° 21:40:38 10° 1° (N) 1,580 6.1 -16.8°
Maximum altitude 21:43:55 40° 73° (ENE) 663 3.1 -17.0°
Enters shadow 21:44:40 35° 108° (ESE) 739 3.1 -17.0°
